Location: Gleizolles
(44.4833°N, 6.7667°E)
Time: 17:13:52
(UTC+00:00)

Explorer 7 - Pass Details

Date: 17 June 2024
Orbit: 465 x 619 km, 50.3° (Epoch: 12 July)

Event Time Altitude Azimuth Distance (km) Brightness Sun altitude
Rises 14:10:19 0° 270° (W) 2,577 10.8 51.9°
Reaches altitude 10° 14:12:38 10° 279° (W) 1,673 10.0 51.5°
Maximum altitude 14:16:10 37° 348° (NNW) 753 7.9 50.9°
Drops below altitude 10° 14:19:37 10° 58° (ENE) 1,629 9.0 50.3°
Sets 14:21:51 0° 67° (ENE) 2,499 9.8 49.9°
